QPF
0.00 0.00 0.00 0.00 0.00 0.00 0.00 0.00 0.00 0.07 0.00 0.00 0.00 0.00 0.00 0.00 0.00 0.00 0.00 0.00 0.00 0.00 0.00 0.00 0.00 0.00 0.00 0.00 0.00 0.00 0.00 0.00 0.00 0.00 0.00 0.00 0.00 0.00 0.00 0.00 0.00 0.00 0.00 0.00
0.00 0.00 0.00 0.00 0.00 0.00 0.00 0.00 0.00 0.00 0.00 0.00 0.00 0.00 0.00 0.00 0.00 0.00 0.00 0.00 0.00 0.00 0.00 0.00 0.00 0.00 0.00 0.00 0.00 0.00 0.00 0.00 0.00 0.00 0.00 0.00 0.00 0.00 0.00 0.00 0.00 0.00 0.00 0.02
0.00 0.00 0.00 0.00 0.00 0.00 0.00 0.00 0.00 0.00 0.00 0.00 0.00 0.00 0.00 0.00 0.00 0.00 0.00 0.00 0.00 0.00 0.00 0.00 0.00 0.00 0.00 0.00 0.00 0.00 0.00 0.00 0.00 0.00 0.00 0.00 0.00 0.00 0.00 0.00 0.00 0.00 0.00 0.00
0.00 0.00 0.00 0.00 0.00 0.00 0.00 0.00 0.00 0.00 0.00 0.00 0.00 0.00 0.00 0.00 0.00 0.00 0.00 0.00 0.00 0.00 0.00 0.00 0.00 0.00 0.00 0.00 0.00 0.00 0.00 0.00 0.00 0.00 0.00 0.00 0.00 0.00 0.00 0.00 0.00 0.00 0.01 0.00
0.00 0.00 0.00 0.00 0.00 0.00 0.00 0.00 0.00 0.00 0.00 0.00 0.00 0.00 0.00 0.00 0.00 0.02 0.03 0.00 0.00 0.00 0.00 0.00 0.00 0.01 0.00 0.00 0.00 0.00 0.00 0.00 0.00 0.00 0.00 0.00 0.00 0.00 0.00 0.00 0.00 0.00 0.00 0.00
0.00 0.00 0.00 0.00 0.00 0.00 0.00 0.00 0.00 0.00 0.00 0.00 0.00 0.00 0.00 0.00 0.00 0.03 0.04 0.01 0.00 0.00 0.00 0.00 0.00 0.00 0.01 0.00 0.00 0.00 0.00 0.00 0.00 0.00 0.00 0.00 0.00 0.00 0.00 0.00 0.00 0.00 0.00 0.00
0.00 0.00 0.00 0.00 0.00 0.00 0.00 0.00 0.00 0.00 0.00 0.00 0.00 0.00 0.00 0.00 0.00 0.00 0.01 0.03 0.03 0.02 0.00 0.00 0.00 0.00 0.00 0.00 0.00 0.00 0.00 0.00 0.00 0.00 0.00 0.00 0.00 0.00 0.00 0.00 0.00 0.00 0.00 0.00
0.00 0.00 0.00 0.00 0.00 0.00 0.00 0.00 0.00 0.00 0.00 0.00 0.00 0.00 0.00 0.00 0.00 0.00 0.00 0.00 0.01 0.00 0.00 0.00 0.00 0.00 0.00 0.00 0.01 0.00 0.00 0.00 0.00 0.00 0.00 0.00 0.00 0.00 0.00 0.00 0.00 0.00 0.00 0.00
0.00 0.00 0.00 0.00 0.00 0.00 0.00 0.00 0.00 0.00 0.00 0.00 0.00 0.00 0.00 0.00 0.00 0.00 0.00 0.00 0.00 0.01 0.00 0.00 0.00 0.00 0.00 0.00 0.00 0.00 0.00 0.01 0.01 0.00 0.00 0.00 0.00 0.00 0.00 0.00 0.00 0.00 0.00 0.00
0.00 0.00 0.00 0.00 0.00 0.00 0.00 0.00 0.00 0.00 0.00 0.00 0.00 0.00 0.00 0.00 0.00 0.00 0.00 0.00 0.01 0.02 0.01 0.00 0.00 0.00 0.00 0.00 0.00 0.00 0.00 0.00 0.00 0.00 0.00 0.00 0.00 0.00 0.00 0.00 0.00 0.00 0.00 0.00
0.00 0.00 0.00 0.00 0.00 0.00 0.00 0.00 0.00 0.00 0.00 0.00 0.00 0.00 0.00 0.00 0.00 0.00 0.00 0.00 0.00 0.00 0.00 0.00 0.00 0.00 0.00 0.00 0.00 0.00 0.00 0.00 0.00 0.00 0.00 0.00 0.00 0.00 0.00 0.00 0.00 0.00 0.00 0.00
0.00 0.00 0.00 0.00 0.00 0.00 0.00 0.00 0.00 0.00 0.00 0.00 0.00 0.00 0.00 0.00 0.00 0.00 0.00 0.00 0.00 0.00 0.00 0.00 0.00 0.00 0.00 0.00 0.00 0.00 0.00 0.00 0.00 0.00 0.00 0.00 0.00 0.00 0.00 0.00 0.00 0.00 0.00 0.00
0.00 0.00 0.00 0.00 0.00 0.00 0.00 0.00 0.00 0.00 0.00 0.00 0.00 0.00 0.00 0.00 0.00 0.00 0.00 0.00 0.00 0.00 0.00 0.00 0.00 0.00 0.00 0.00 0.00 0.00 0.00 0.00 0.00 0.00 0.00 0.00 0.00 0.00 0.00 0.00 0.00 0.00 0.00 0.00
0.00 0.00 0.00 0.00 0.00 0.00 0.00 0.00 0.00 0.00 0.00 0.00 0.00 0.00 0.00 0.00 0.00 0.00 0.00 0.00 0.00 0.00 0.00 0.00 0.01 0.00 0.00 0.00 0.00 0.00 0.00 0.00 0.00 0.00 0.00 0.00 0.00 0.00 0.00 0.00 0.00 0.00 0.00 0.00
0.00 0.00 0.00 0.00 0.00 0.00 0.00 0.00 0.00 0.00 0.00 0.00 0.00 0.00 0.00 0.00 0.00 0.00 0.00 0.01 0.00 0.00 0.00 0.00 0.04 0.04 0.01 0.00 0.00 0.00 0.00 0.00 0.00 0.00 0.00 0.00 0.00 0.00 0.00 0.00 0.00 0.00 0.00 0.00
0.00 0.00 0.00 0.00 0.00 0.00 0.00 0.00 0.00 0.00 0.00 0.00 0.00 0.00 0.00 0.00 0.00 0.00 0.00 0.00 0.00 0.00 0.00 0.00 0.01 0.03 0.04 0.02 0.00 0.00 0.00 0.00 0.00 0.00 0.02 0.01 0.00 0.01 0.01 0.01 0.01 0.00 0.00 0.00
0.00 0.00 0.00 0.00 0.00 0.00 0.00 0.00 0.00 0.00 0.00 0.00 0.00 0.00 0.00 0.00 0.00 0.00 0.00 0.00 0.00 0.00 0.00 0.00 0.00 0.01 0.02 0.02 0.00 0.03 0.13 0.08 0.16 0.24 0.26 0.21 0.20 0.02 0.06 0.10 0.07 0.02 0.05 0.06
0.00 0.00 0.00 0.00 0.00 0.00 0.00 0.00 0.00 0.00 0.00 0.00 0.00 0.00 0.00 0.00 0.00 0.00 0.00 0.00 0.00 0.00 0.00 0.00 0.00 0.00 0.00 0.01 0.01 0.03 0.10 0.10 0.26 0.64 0.35 0.15 0.09 0.01 0.01 0.10 0.25 0.32 0.36 0.25
0.00 0.00 0.00 0.00 0.00 0.00 0.00 0.00 0.00 0.00 0.00 0.00 0.00 0.00 0.00 0.00 0.00 0.00 0.00 0.00 0.00 0.00 0.00 0.00 0.00 0.00 0.00 0.00 0.00 0.00 0.00 0.02 0.02 0.04 0.04 0.01 0.02 0.00 0.01 0.08 0.13 0.15 0.14 0.14
0.00 0.00 0.00 0.00 0.00 0.00 0.00 0.00 0.00 0.00 0.00 0.00 0.00 0.00 0.00 0.00 0.00 0.00 0.00 0.00 0.00 0.00 0.00 0.00 0.00 0.00 0.00 0.00 0.00 0.00 0.00 0.00 0.00 0.00 0.00 0.00 0.00 0.00 0.00 0.00 0.01 0.03 0.04 0.07
0.00 0.00 0.00 0.00 0.00 0.00 0.00 0.00 0.00 0.00 0.00 0.00 0.00 0.00 0.00 0.00 0.00 0.00 0.00 0.00 0.00 0.00 0.00 0.00 0.00 0.00 0.00 0.00 0.00 0.00 0.00 0.00 0.00 0.00 0.00 0.00 0.00 0.00 0.00 0.00 0.00 0.00 0.00 0.00
0.00 0.00 0.00 0.00 0.00 0.00 0.00 0.00 0.00 0.00 0.00 0.00 0.00 0.00 0.00 0.00 0.00 0.00 0.00 0.00 0.00 0.00 0.00 0.00 0.00 0.00 0.00 0.00 0.00 0.00 0.00 0.00 0.00 0.00 0.00 0.00 0.00 0.00 0.00 0.00 0.00 0.00 0.00 0.00
0.00 0.00 0.00 0.00 0.00 0.00 0.00 0.00 0.00 0.00 0.00 0.00 0.00 0.00 0.00 0.00 0.00 0.00 0.00 0.00 0.00 0.00 0.00 0.00 0.00 0.00 0.00 0.00 0.00 0.00 0.00 0.00 0.00 0.00 0.00 0.00 0.00 0.00 0.00 0.00 0.00 0.00 0.00 0.00
0.00 0.00 0.00 0.00 0.00 0.00 0.00 0.00 0.00 0.00 0.00 0.00 0.00 0.00 0.00 0.00 0.00 0.00 0.00 0.00 0.00 0.00 0.00 0.00 0.00 0.00 0.00 0.00 0.00 0.00 0.00 0.00 0.00 0.00 0.00 0.00 0.00 0.00 0.00 0.00 0.00 0.00 0.01 0.00
0.00 0.00 0.00 0.00 0.00 0.00 0.00 0.00 0.00 0.00 0.00 0.00 0.00 0.00 0.00 0.00 0.00 0.00 0.00 0.00 0.00 0.00 0.00 0.00 0.00 0.00 0.00 0.00 0.00 0.00 0.00 0.00 0.01 0.00 0.00 0.00 0.00 0.00 0.00 0.00 0.00 0.02 0.04 0.03
0.00 0.00 0.00 0.00 0.00 0.00 0.00 0.00 0.00 0.00 0.00 0.00 0.00 0.00 0.00 0.00 0.00 0.00 0.00 0.00 0.00 0.00 0.00 0.00 0.00 0.00 0.00 0.00 0.00 0.00 0.00 0.02 0.00 0.00 0.00 0.00 0.00 0.00 0.02 0.01 0.02 0.09 0.08 0.06
MSLP
1007.59 1008.44 1008.93 1008.74 1008.99 1008.68 1008.96 1010.63 1011.15 1010.25 1010.58 1011.21 1011.01 1010.61 1010.39 1010.95 1011.64 1012.10 1012.52 1012.67 1012.84 1012.91 1012.46 1012.86 1013.24 1013.65 1014.30 1015.09 1015.60 1015.89 1016.32 1016.54 1016.96 1017.39 1017.76 1017.65 1017.47 1017.46 1017.41 1017.38 1017.46 1017.76 1017.72 1017.59
1007.98 1007.83 1007.31 1007.46 1007.62 1008.10 1008.49 1009.14 1009.98 1009.96 1010.34 1011.15 1011.46 1011.85 1011.55 1011.06 1010.68 1011.04 1011.44 1011.93 1012.23 1012.53 1012.74 1012.60 1012.77 1013.28 1013.78 1014.41 1014.98 1015.75 1016.07 1016.47 1016.76 1017.04 1017.20 1017.24 1017.20 1017.19 1017.18 1017.10 1017.26 1017.61 1017.50 1017.57
1007.63 1006.64 1006.57 1007.10 1007.21 1007.73 1007.91 1008.19 1008.73 1009.37 1010.38 1011.10 1012.01 1012.63 1012.41 1011.90 1011.27 1010.67 1010.84 1011.05 1011.28 1011.84 1012.46 1012.57 1012.55 1012.96 1013.61 1014.30 1014.69 1015.21 1015.69 1016.14 1016.42 1016.74 1017.07 1017.09 1017.14 1017.14 1017.30 1017.32 1017.44 1017.45 1017.37 1017.58
1007.15 1006.13 1006.02 1005.93 1006.43 1006.78 1006.80 1006.69 1008.20 1009.34 1010.29 1011.41 1012.17 1013.22 1012.97 1012.51 1011.74 1011.85 1011.88 1011.77 1011.63 1011.72 1012.05 1012.45 1012.71 1013.01 1013.39 1013.74 1014.28 1014.82 1015.42 1015.77 1016.05 1016.51 1016.81 1016.96 1017.06 1017.32 1017.24 1017.23 1017.19 1017.18 1017.16 1017.31
1006.39 1005.63 1005.43 1005.26 1005.03 1005.32 1005.84 1006.28 1008.04 1009.41 1010.90 1012.23 1012.92 1013.40 1013.75 1013.04 1012.20 1011.65 1011.77 1011.91 1011.96 1011.91 1012.27 1012.07 1012.39 1012.80 1013.21 1013.51 1013.83 1014.45 1014.97 1015.41 1015.71 1016.16 1016.37 1016.74 1017.00 1016.96 1017.08 1017.12 1017.21 1017.29 1017.28 1017.32
1005.72 1005.07 1004.99 1004.05 1003.69 1004.47 1005.74 1007.58 1009.34 1010.69 1011.92 1013.42 1013.56 1013.94 1014.07 1013.38 1012.34 1011.29 1010.64 1011.02 1011.22 1011.33 1011.50 1011.56 1012.11 1012.34 1012.96 1013.65 1013.81 1014.10 1014.62 1015.03 1015.41 1015.80 1016.16 1016.51 1016.75 1016.89 1017.08 1017.23 1017.36 1017.31 1017.43 1017.47
1005.96 1004.62 1003.69 1003.25 1003.74 1004.64 1005.99 1007.90 1010.35 1012.07 1013.13 1013.93 1013.96 1014.17 1013.42 1012.71 1011.72 1011.27 1010.49 1009.90 1010.01 1010.66 1011.40 1011.27 1011.73 1012.18 1012.56 1012.97 1013.43 1013.96 1014.42 1014.84 1015.17 1015.47 1015.84 1016.19 1016.39 1016.63 1016.87 1017.03 1017.11 1017.27 1017.30 1017.29
1006.54 1005.16 1003.79 1003.08 1003.27 1004.19 1005.54 1006.74 1009.31 1011.50 1013.60 1014.01 1014.10 1014.27 1013.03 1011.72 1011.51 1011.04 1010.53 1010.51 1009.89 1010.44 1010.90 1011.06 1011.03 1011.48 1012.00 1012.48 1013.12 1013.56 1014.12 1014.39 1014.72 1015.06 1015.31 1015.64 1015.88 1016.24 1016.51 1016.61 1016.65 1016.64 1016.75 1016.71
1006.39 1005.45 1003.82 1003.00 1003.08 1003.40 1005.41 1006.97 1008.50 1011.29 1013.65 1014.14 1014.90 1013.96 1012.40 1011.13 1010.89 1011.04 1011.28 1010.76 1009.58 1011.01 1011.33 1011.21 1011.04 1011.02 1011.44 1011.91 1012.37 1012.72 1013.38 1014.18 1014.65 1014.63 1015.07 1015.31 1015.57 1015.88 1016.04 1016.09 1016.18 1016.25 1016.39 1016.42
1006.01 1005.90 1004.46 1003.55 1003.05 1003.81 1004.68 1006.56 1008.52 1010.60 1013.21 1015.03 1015.15 1014.29 1012.78 1010.83 1010.61 1011.11 1011.42 1011.08 1010.69 1010.82 1010.87 1010.88 1010.64 1010.51 1010.65 1011.09 1011.56 1012.68 1012.79 1012.94 1013.31 1013.97 1014.37 1014.70 1014.93 1015.22 1015.42 1015.71 1015.84 1015.92 1016.00 1016.19
1005.79 1006.54 1005.44 1004.67 1004.43 1004.68 1005.55 1006.72 1008.73 1010.73 1012.49 1014.03 1014.94 1013.53 1011.14 1010.54 1010.98 1011.38 1012.21 1011.90 1011.61 1011.34 1010.84 1010.45 1010.07 1009.61 1009.72 1010.24 1010.85 1011.30 1012.21 1012.63 1013.06 1013.49 1013.75 1014.21 1014.46 1014.81 1015.16 1015.47 1015.51 1015.58 1015.63 1015.85
1005.98 1006.62 1006.79 1005.90 1005.08 1005.16 1005.16 1006.00 1007.77 1010.30 1012.73 1013.38 1013.41 1012.46 1010.49 1010.68 1010.83 1010.96 1010.52 1010.99 1011.19 1010.68 1010.22 1010.00 1009.88 1009.76 1009.24 1009.74 1010.36 1011.01 1011.62 1012.28 1012.40 1012.82 1013.54 1013.99 1014.26 1014.42 1014.67 1014.99 1015.07 1015.23 1015.45 1015.71
1005.85 1007.27 1007.73 1006.64 1006.26 1005.83 1005.94 1006.29 1007.52 1009.10 1010.71 1012.64 1012.99 1012.48 1010.76 1010.96 1011.02 1010.97 1011.23 1011.06 1010.86 1010.27 1010.03 1010.09 1010.12 1010.15 1009.72 1009.99 1010.25 1010.57 1011.19 1011.27 1011.61 1012.41 1012.93 1013.45 1013.86 1014.18 1014.18 1014.09 1014.13 1014.38 1014.87 1015.25
1005.85 1008.16 1008.57 1008.43 1007.71 1006.93 1006.62 1006.45 1006.95 1008.27 1010.18 1011.93 1012.03 1011.69 1011.31 1011.14 1011.44 1011.09 1010.98 1011.08 1010.90 1010.93 1011.04 1011.14 1010.80 1011.01 1010.29 1010.42 1010.68 1010.93 1011.11 1011.56 1011.67 1012.15 1012.88 1013.40 1013.79 1013.96 1014.04 1014.10 1014.16 1014.31 1014.43 1014.51
1007.18 1008.87 1008.76 1008.35 1007.65 1006.83 1006.66 1006.63 1006.78 1007.50 1009.13 1009.86 1010.72 1011.17 1010.93 1011.15 1011.26 1011.11 1011.41 1011.48 1011.47 1011.90 1012.08 1012.14 1011.98 1011.89 1011.25 1011.28 1011.35 1011.65 1011.98 1012.14 1012.30 1012.82 1013.32 1013.13 1013.06 1013.53 1013.87 1013.96 1013.96 1013.94 1014.09 1014.19
1008.40 1009.12 1009.08 1008.66 1007.75 1007.35 1007.02 1006.86 1006.97 1007.39 1008.73 1009.22 1010.05 1010.63 1010.67 1010.90 1011.36 1011.78 1011.76 1011.67 1011.67 1012.14 1012.50 1012.63 1012.40 1012.32 1012.03 1011.85 1011.67 1011.74 1011.98 1012.25 1012.45 1013.18 1013.09 1013.19 1013.02 1012.99 1013.48 1013.82 1013.75 1013.87 1013.90 1013.80
1008.98 1009.66 1010.19 1009.63 1008.53 1007.70 1007.61 1007.34 1007.29 1007.61 1008.32 1008.51 1009.84 1009.64 1010.19 1011.11 1011.57 1011.82 1012.14 1012.16 1012.09 1012.25 1012.59 1012.97 1012.94 1012.70 1012.36 1012.19 1012.11 1012.18 1011.84 1011.56 1012.10 1012.47 1012.85 1013.64 1014.58 1014.02 1013.57 1013.59 1013.93 1013.44 1013.25 1013.25
1009.51 1010.27 1010.76 1010.73 1009.48 1008.98 1008.02 1007.21 1007.02 1007.31 1008.25 1008.66 1008.90 1009.43 1010.12 1010.74 1011.16 1011.46 1011.76 1011.88 1012.19 1012.41 1012.75 1013.00 1012.96 1012.93 1012.98 1012.83 1012.60 1012.68 1012.74 1012.05 1011.65 1012.07 1011.56 1012.71 1014.05 1015.40 1013.94 1013.45 1013.34 1013.58 1012.98 1012.99
1009.29 1010.31 1011.58 1011.54 1010.83 1009.67 1008.33 1007.69 1007.58 1007.57 1008.76 1008.68 1008.92 1009.41 1009.92 1010.69 1011.31 1011.76 1011.63 1011.64 1011.84 1012.20 1012.52 1012.63 1012.83 1012.94 1012.78 1012.77 1012.53 1012.69 1012.81 1012.66 1012.76 1012.82 1012.61 1013.03 1013.94 1014.17 1013.60 1013.28 1014.15 1013.87 1013.66 1013.43
1009.86 1010.20 1011.07 1011.97 1011.24 1009.97 1008.75 1007.86 1007.52 1007.78 1008.93 1008.82 1008.86 1009.49 1010.21 1010.83 1011.57 1011.67 1011.11 1011.31 1011.60 1011.95 1012.24 1012.37 1012.89 1013.14 1013.13 1013.11 1013.06 1013.07 1013.26 1013.38 1013.46 1013.56 1013.42 1013.68 1014.13 1014.01 1013.72 1014.18 1014.25 1013.95 1013.77 1013.78
1010.50 1011.51 1011.83 1011.86 1011.07 1009.79 1008.42 1008.04 1007.91 1008.76 1008.94 1008.57 1008.94 1009.53 1010.26 1010.78 1010.72 1010.63 1010.84 1011.24 1011.51 1011.78 1011.86 1011.94 1012.86 1013.44 1013.52 1013.43 1013.57 1013.66 1013.78 1013.82 1013.42 1013.48 1013.60 1013.77 1013.87 1013.83 1013.57 1013.58 1013.67 1013.40 1013.45 1013.63
1010.93 1011.60 1012.01 1012.04 1011.16 1009.70 1008.09 1007.92 1008.10 1008.28 1008.31 1008.39 1008.90 1009.39 1010.09 1010.24 1010.40 1010.68 1010.86 1011.20 1011.49 1011.69 1011.77 1011.95 1012.24 1012.40 1013.02 1013.01 1013.22 1013.30 1013.37 1013.14 1013.34 1013.57 1013.75 1013.61 1013.27 1013.14 1013.13 1013.20 1013.06 1013.21 1013.47 1013.61
1011.12 1010.99 1011.02 1011.37 1010.50 1009.01 1008.31 1007.92 1007.87 1008.05 1008.36 1008.78 1008.93 1009.34 1009.74 1010.37 1010.74 1010.84 1010.99 1011.25 1011.35 1011.51 1011.66 1011.78 1011.99 1011.98 1012.18 1012.59 1012.78 1013.06 1012.83 1012.98 1013.21 1013.32 1013.31 1013.21 1013.00 1012.98 1013.00 1013.17 1013.17 1013.52 1013.66 1013.55
1010.74 1010.55 1010.85 1010.75 1009.86 1009.11 1008.53 1008.33 1008.22 1008.34 1008.64 1008.81 1009.02 1009.46 1009.83 1010.34 1010.52 1010.78 1011.00 1011.21 1011.29 1011.56 1011.72 1011.80 1011.87 1011.98 1012.02 1012.23 1012.45 1012.57 1012.50 1012.47 1012.77 1012.82 1012.79 1012.82 1012.70 1012.51 1012.41 1012.60 1012.83 1012.93 1013.12 1013.23
1011.10 1010.71 1010.87 1010.81 1010.05 1009.42 1008.95 1008.59 1008.43 1008.57 1008.70 1008.93 1009.10 1009.29 1009.75 1010.28 1010.91 1010.98 1011.27 1011.54 1011.58 1011.57 1011.66 1011.73 1011.92 1012.04 1011.96 1011.93 1012.09 1012.22 1012.18 1012.32 1012.43 1012.73 1012.85 1012.65 1012.50 1012.39 1012.65 1013.03 1012.94 1012.88 1012.95 1012.84
1010.79 1010.47 1010.57 1010.49 1009.85 1009.48 1009.06 1008.54 1008.49 1008.62 1008.83 1008.96 1009.19 1009.72 1010.14 1010.48 1010.89 1011.24 1011.65 1011.63 1011.71 1011.73 1011.75 1011.92 1012.10 1012.16 1011.87 1011.64 1011.87 1012.12 1012.10 1012.24 1012.28 1012.57 1012.76 1012.66 1012.47 1012.46 1012.43 1012.63 1012.70 1012.40 1012.63 1013.36
Thickness
5821 5799 5786 5800 5802 5810 5809 5786 5775 5791 5797 5787 5784 5792 5803 5802 5801 5796 5792 5789 5789 5792 5807 5809 5806 5807 5803 5798 5795 5797 5796 5796 5794 5791 5787 5788 5789 5790 5792 5791 5790 5787 5787 5788
5803 5793 5820 5826 5820 5814 5811 5801 5788 5800 5805 5788 5786 5783 5798 5805 5809 5807 5808 5802 5799 5798 5799 5805 5811 5809 5806 5803 5801 5797 5799 5797 5796 5794 5793 5793 5793 5794 5793 5792 5791 5789 5789 5789
5795 5818 5835 5827 5819 5806 5803 5800 5796 5795 5799 5794 5780 5769 5781 5797 5807 5815 5817 5818 5816 5809 5798 5800 5808 5809 5808 5802 5801 5800 5801 5800 5798 5797 5794 5795 5795 5795 5792 5791 5791 5790 5790 5788
5805 5829 5829 5827 5816 5814 5806 5826 5818 5803 5795 5768 5784 5752 5775 5784 5792 5799 5799 5803 5806 5811 5810 5802 5804 5805 5807 5808 5807 5805 5802 5800 5800 5798 5796 5796 5793 5789 5793 5793 5795 5794 5793 5792
5806 5824 5822 5821 5830 5839 5821 5838 5820 5808 5782 5770 5769 5754 5759 5777 5783 5794 5797 5798 5799 5804 5805 5802 5804 5805 5806 5809 5809 5807 5805 5803 5803 5800 5800 5797 5795 5797 5795 5795 5794 5794 5792 5792
5819 5843 5840 5839 5854 5848 5837 5813 5796 5788 5774 5746 5761 5754 5749 5765 5783 5797 5809 5805 5808 5809 5812 5809 5808 5812 5807 5805 5809 5809 5807 5805 5805 5803 5801 5798 5797 5795 5793 5794 5793 5792 5792 5793
5810 5831 5851 5859 5841 5842 5823 5793 5750 5749 5746 5738 5759 5747 5758 5784 5793 5794 5800 5813 5818 5811 5806 5812 5807 5809 5809 5809 5809 5809 5807 5803 5805 5805 5803 5800 5799 5797 5795 5795 5795 5794 5793 5793
5782 5787 5839 5858 5844 5829 5825 5812 5768 5767 5738 5748 5765 5746 5763 5793 5797 5795 5799 5802 5814 5813 5812 5809 5813 5814 5811 5811 5810 5809 5806 5805 5807 5806 5806 5805 5803 5799 5798 5798 5799 5800 5798 5798
5782 5794 5843 5850 5854 5849 5823 5801 5813 5760 5753 5749 5739 5766 5787 5798 5797 5794 5787 5796 5810 5806 5805 5807 5812 5816 5814 5815 5815 5813 5809 5804 5803 5806 5805 5804 5804 5802 5801 5801 5802 5802 5801 5800
5815 5788 5832 5844 5858 5848 5839 5824 5795 5773 5744 5727 5738 5747 5756 5793 5799 5796 5793 5797 5808 5808 5811 5812 5816 5820 5824 5823 5822 5814 5815 5816 5816 5812 5810 5809 5808 5807 5806 5804 5802 5803 5804 5801
5818 5799 5812 5832 5828 5821 5811 5805 5784 5775 5763 5731 5723 5752 5797 5803 5799 5791 5791 5797 5803 5808 5816 5824 5829 5834 5836 5834 5831 5829 5820 5816 5815 5813 5813 5810 5809 5807 5805 5803 5803 5803 5805 5803
5822 5794 5788 5816 5835 5835 5831 5827 5802 5771 5762 5747 5749 5760 5820 5813 5810 5808 5813 5811 5812 5821 5828 5831 5834 5836 5842 5839 5834 5828 5821 5815 5817 5814 5809 5807 5807 5808 5807 5804 5804 5803 5801 5801
5824 5783 5766 5787 5807 5822 5814 5821 5799 5790 5778 5757 5752 5762 5814 5809 5811 5813 5810 5815 5818 5828 5833 5832 5832 5833 5837 5837 5834 5832 5824 5822 5822 5815 5811 5807 5805 5804 5807 5810 5813 5810 5804 5801
5822 5780 5776 5760 5784 5803 5807 5820 5819 5804 5776 5759 5765 5779 5797 5805 5805 5813 5817 5816 5820 5819 5819 5817 5822 5820 5828 5827 5827 5824 5823 5821 5820 5816 5810 5806 5803 5802 5803 5805 5807 5807 5806 5806
5810 5780 5790 5795 5800 5811 5816 5814 5820 5811 5790 5790 5782 5780 5794 5800 5806 5811 5811 5812 5809 5803 5802 5802 5805 5806 5816 5818 5816 5814 5811 5810 5810 5804 5800 5804 5807 5803 5801 5801 5801 5800 5800 5800
5795 5779 5787 5788 5798 5802 5799 5809 5809 5804 5793 5791 5786 5788 5801 5805 5805 5798 5800 5802 5800 5794 5791 5793 5797 5801 5804 5808 5811 5811 5810 5807 5803 5797 5799 5799 5800 5802 5799 5795 5796 5797 5793 5794
5784 5770 5763 5766 5780 5792 5775 5796 5807 5805 5802 5802 5781 5795 5797 5792 5792 5789 5789 5790 5790 5789 5786 5783 5786 5791 5796 5799 5801 5800 5803 5805 5798 5798 5796 5783 5770 5775 5786 5790 5786 5791 5790 5790
5773 5766 5750 5757 5768 5748 5786 5807 5812 5807 5801 5808 5805 5801 5798 5794 5795 5793 5792 5788 5785 5785 5782 5780 5779 5782 5784 5787 5789 5789 5787 5791 5796 5792 5798 5787 5766 5752 5776 5785 5783 5779 5777 5776
5782 5761 5743 5744 5739 5765 5786 5798 5800 5795 5789 5807 5800 5802 5801 5795 5789 5784 5791 5791 5787 5784 5781 5780 5777 5775 5777 5778 5782 5780 5778 5778 5779 5782 5783 5778 5769 5763 5770 5773 5766 5769 5771 5770
5769 5765 5757 5733 5750 5746 5769 5801 5813 5806 5762 5803 5803 5797 5790 5788 5760 5766 5789 5790 5787 5783 5778 5775 5769 5766 5766 5768 5769 5769 5766 5764 5762 5762 5765 5763 5757 5757 5758 5757 5759 5762 5763 5759
5750 5744 5740 5731 5739 5754 5785 5798 5802 5763 5764 5799 5798 5792 5785 5775 5779 5788 5790 5785 5783 5777 5774 5774 5762 5754 5754 5756 5756 5754 5753 5751 5755 5754 5753 5751 5750 5750 5754 5755 5756 5760 5758 5756
5751 5739 5736 5729 5733 5745 5799 5798 5782 5783 5795 5797 5794 5791 5785 5789 5788 5784 5783 5780 5776 5772 5771 5770 5764 5760 5753 5753 5750 5749 5746 5748 5746 5742 5741 5742 5746 5748 5748 5747 5748 5748 5747 5745
5745 5753 5746 5749 5749 5781 5791 5795 5797 5797 5791 5793 5790 5791 5787 5781 5778 5778 5776 5775 5772 5769 5767 5766 5763 5763 5759 5753 5749 5745 5746 5742 5738 5736 5736 5737 5739 5739 5738 5735 5735 5734 5734 5736
5761 5766 5754 5757 5774 5784 5790 5794 5796 5795 5792 5792 5792 5787 5784 5778 5777 5775 5772 5770 5768 5764 5761 5761 5759 5757 5755 5754 5751 5746 5745 5742 5737 5735 5735 5733 5733 5732 5732 5729 5728 5730 5730 5730
5755 5762 5754 5753 5770 5780 5786 5791 5791 5790 5791 5789 5790 5787 5781 5777 5772 5770 5766 5764 5763 5762 5761 5760 5756 5753 5753 5753 5749 5746 5744 5741 5736 5732 5728 5728 5729 5728 5724 5719 5719 5722 5721 5725
5757 5757 5745 5743 5766 5769 5774 5787 5790 5786 5785 5785 5783 5777 5776 5772 5767 5764 5761 5761 5761 5759 5757 5755 5753 5751 5752 5752 5749 5745 5742 5736 5732 5726 5724 5723 5723 5721 5720 5718 5717 5717 5717 5712